Tracking 28790 objects as of 19-Apr-2024
HD Live streaming from Space Station
objects crossing your sky now

DELTA 1 DEB

Track DELTA 1 DEB now!
10-day predictions


NORAD ID: 42633
Int'l Code: 1975-052LS
Perigee: 1,078.5 km
Apogee: 1,268.9 km
Inclination: 99.7 °
Period: 108.7 minutes
Semi major axis: 7544 km
RCS: Unknown
Launch date: June 12, 1975
Source: United States (US)
Launch site: AIR FORCE WESTERN TEST RANGE (AFWTR)

Note: This is SATELLITE DEBRIS
Your satellite tracking list
Your tracking list is empty




NASA's NSSDC Master Catalog

Two Line Element Set (TLE):
1 42633U 75052LS  24107.90610447  .00000724  00000-0  16950-2 0  9998
2 42633  99.7382 354.2292 0126189  96.8059 264.7437 13.24759368968159
Source of the keplerian elements: AFSPC